Location: Artiguedieu
(43.5000°N, 0.5454°E)
Time: 12:34:42
(UTC+00:00)

Lacrosse 5 - Pass Details

Date: 06 December 2020
Orbit: 713 x 726 km, 57.0° (Epoch: 23 January)

Event Time Altitude Azimuth Distance (km) Brightness Sun altitude
Exits shadow 05:12:43 19° 350° (N) 1,687 3.6 -21.7°
Maximum altitude 05:12:45 19° 350° (N) 1,687 3.6 -21.7°
Drops below altitude 10° 05:16:16 10° 35° (NE) 2,197 4.6 -21.0°
Sets 05:19:21 0° 54° (NE) 3,119 5.8 -20.5°
